Location: Banksville Park
(38.5557°N, 75.1182°W)
Time: 10:48:35
(UTC+00:00)

CENTAUR R/B - Pass Details

Date: 17 January 2021
Orbit: 742 x 1446 km, 63.5° (Epoch: 02 March)

Event Time Altitude Azimuth Distance (km) Brightness Sun altitude
Rises 11:19:34 0° 170° (S) 3,278 5.7 -11.0°
Reaches altitude 10° 11:22:24 10° 154° (SSE) 2,428 5.3 -10.5°
Maximum altitude 11:26:30 21° 106° (ESE) 1,897 5.3 -9.7°
Drops below altitude 10° 11:31:02 10° 60° (ENE) 2,737 5.5 -8.9°
Sets 11:34:27 0° 46° (NE) 3,826 6.0 -8.3°
